COSMOS 1275 DEB, 12751

Orbit data source: Space-Track

COSMOS 1275 DEB, 12751 is space debris in LEO originally from a launch on Thu, 04 Jun 1981 UTC launched from the Plesetsk Missile And Space Complex (PKMTR). Debris objects in space refer to the collection of defunct objects orbiting the Earth. Examples of debris include non-operational satellites, rocket bodies, and fragments generated from explosions, collisions, or faulty payload assembly.

Loading next visibility...
Identifier
12751, 1981-053CU
Orbit
LEO
Country
Flag of CISCIS
Related business
Manufacturer
Unknown
Mission
Spacecraft
Bus & Motor
Unknown
Mass
Unknown
Launch date (UTC)
1981-06-04 (45 years ago)
Launch vehicle
Unknown
Launch site
Plesetsk Missile And Space Complex (PKMTR)
Object type
Payload
Rocket body
Debris
Shape & HBR
Unknown shape, 0.3 m
Radar Cross Section
Medium (>0.1 m² and <1 m²)

Expand to show TLE details & history
Last TLE update: 14 hours ago

TLE from 14 hours ago
0 COSMOS 1275 DEB
1 12751U 81053CU  26255.63015914  .00000229  00000-0  20003-3 0  9993
2 12751  82.9403 111.4489 0029238  52.6152   2.0481 13.81434587268169
Epoch: 2026-09-12T15:07Z
TLE epoch observation values (Epoch: 2026-09-12T15:07:25.749Z)
Latitude
54.16495°
Longitude
-97.22237°
Altitude
946.274 km
Speed
7.395 km/s
True Right ascension
08h 05m 05s
True Declination
54° 00' 21"
Sunlit
Object was in daylight at epoch
Visualization orbit readout
Latitude
Unknown
Longitude
Unknown
Altitude
Unknown
Speed
Unknown
Apparent Right ascension
Unknown
Apparent Declination
Unknown
Sunlit
N/A
Visualization observer readout
Local Sidereal Time
21:16:56
Azimuth
Unknown
Elevation
Unknown
Doppler factor
Unknown
Orbital elements
Apogee altitude
977.386 km
Perigee altitude
934.499 km
Semi-major axis
7,334.08 km
Eccentricity
0.00292
Inclination
82.9403°
RAAN
111.4489°
Arg. of periapsis
52.6152°
True anomaly
2.06012°
Mean anomaly
2.0481°
Eccentric anomaly
2.0541°
Mean motion
3.45561 °/min
Orbital period
104.18 mins
BSTAR
0.00020003
Loading maneuver chart data...
Computing Atmospheric mass density...
Loading historical data...
Loading historical data...
Loading historical data...
Loading historical data...
Loading historical data...
Loading historical data...
Loading historical data...

Documentation

Showing up to 5 results
|